Location: Ahausen
(50.4985°N, 8.2722°E)
Time: 06:49:37
(UTC+00:00)

DX 1 - Visible Passes

Search period start: 28 June 2022 00:00
Search period end: 08 July 2022 00:00
Orbit: 618 x 628 km, 98.4° (Epoch: 27 June)

Date Brightness Start Highest point End Pass type
(mag) Time Alt. Az. Time Alt. Az. Time Alt. Az.
28 Jun ? 21:41:47 10° N 21:45:42 33° WNW 21:49:36 10° SW visible
29 Jun ? 20:23:42 10° NNE 20:27:58 48° E 20:32:11 10° S visible
29 Jun ? 22:00:20 10° N 22:03:50 24° WNW 22:07:18 10° WSW visible
30 Jun ? 20:41:54 10° NNE 20:46:17 71° ESE 20:50:38 10° S visible
30 Jun ? 22:19:03 10° NNW 22:21:55 17° WNW 22:24:46 10° W visible
01 Jul ? 21:00:10 10° NNE 21:04:34 78° WNW 21:08:55 10° SSW visible
01 Jul ? 22:38:04 10° NNW 22:39:58 13° NW 22:41:50 10° W visible
02 Jul ? 21:18:30 10° N 21:22:47 53° WNW 21:27:02 10° SW visible
03 Jul ? 21:36:56 10° N 21:40:58 37° WNW 21:44:59 10° SW visible
04 Jul ? 21:55:27 10° N 21:59:06 26° WNW 22:02:45 10° WSW visible
05 Jul ? 20:37:08 10° NNE 20:41:29 62° ESE 20:45:48 10° S visible
05 Jul ? 22:14:06 10° NNW 22:17:12 19° WNW 22:20:17 10° WSW visible
06 Jul ? 20:55:22 10° NNE 20:59:46 89° WNW 21:04:08 10° SSW visible
06 Jul ? 22:32:59 10° NNW 22:35:15 14° NW 22:37:30 10° W visible
07 Jul ? 21:13:41 10° N 21:18:01 61° WNW 21:22:18 10° SSW visible
07 Jul ? 22:52:56 10° NW 22:53:15 10° NW 22:53:34 10° NW visible
